This is the latest recevied weather packets stored in our database for station/object AJ7DN. If no packets are shown the sender has not sent any weather packets the latest 10 day(s).
| Time | Temp. | Humidity | Pressure | Rain* | Wind** | Luminosity | Snow |
|---|---|---|---|---|---|---|---|
| 1777858553 | 31.67° C | 25% | 1010.5 hPa | 0 mm | - | 34 W/m² | - |
| 1777858249 | 31.67° C | 26% | 1010.7 hPa | 0 mm | - | 34 W/m² | - |
| 1777857947 | 32.22° C | 24% | 1010.8 hPa | 0 mm | - | 37 W/m² | - |
| 1777857645 | 32.22° C | 25% | 1010.8 hPa | 0 mm | - | 37 W/m² | - |
| 1777857341 | 32.78° C | 25% | 1010.7 hPa | 0 mm | - | 39 W/m² | - |
| 1777857037 | 32.78° C | 24% | 1010.9 hPa | 0 mm | - | 39 W/m² | - |
| 1777856733 | 32.78° C | 22% | 1010.9 hPa | 0 mm | - | 47 W/m² | - |
| 1777856429 | 33.33° C | 23% | 1011 hPa | 0 mm | - | 45 W/m² | - |
| 1777856126 | 33.89° C | 23% | 1011 hPa | 0 mm | - | 97 W/m² | - |
| 1777855824 | 33.89° C | 23% | 1011 hPa | 0 mm | - | 236 W/m² | - |
| 1777855522 | 33.89° C | 22% | 1011.1 hPa | 0 mm | - | 240 W/m² | - |
| 1777855218 | 34.44° C | 23% | 1011.1 hPa | 0 mm | - | 263 W/m² | - |
| 1777854914 | 34.44° C | 24% | 1011.1 hPa | 0 mm | - | 256 W/m² | - |
| 1777854611 | 34.44° C | 22% | 1011 hPa | 0 mm | - | 226 W/m² | - |
| 1777854308 | 34.44° C | 23% | 1011.1 hPa | 0 mm | - | 270 W/m² | - |
| 1777854006 | 35° C | 22% | 1011.4 hPa | 0 mm | - | 299 W/m² | - |
| 1777853703 | 35° C | 24% | 1011.1 hPa | 0 mm | - | 302 W/m² | - |
| 1777853399 | 35° C | 24% | 1011 hPa | 0 mm | - | 312 W/m² | - |
| 1777853097 | 35° C | 21% | 1011.3 hPa | 0 mm | - | 318 W/m² | - |
| 1777852794 | 35° C | 22% | 1011.2 hPa | 0 mm | - | 347 W/m² | - |
| 1777852491 | 35.56° C | 21% | 1011.1 hPa | 0 mm | - | 360 W/m² | - |
| 1777852188 | 35° C | 24% | 1011.2 hPa | 0 mm | - | 371 W/m² | - |
| 1777851886 | 34.44° C | 22% | 1011.2 hPa | 0 mm | - | 360 W/m² | - |
| 1777851584 | 35.56° C | 22% | 1011.3 hPa | 0 mm | - | 339 W/m² | - |
| 1777851280 | 35.56° C | 22% | 1011.4 hPa | 0 mm | - | 326 W/m² | - |
* Rain latest hour (hover to see other rain measurements)
** Current wind speed in m/s (hover to see current wind gust speed)